{"data":{"norad_id":58682,"intl_designator":"2023-211R","name":"STARLINK-31144","alt_names":[],"object_type":"PAYLOAD","status":"ACTIVE","operator":null,"country":"US","launch_date":"2023-12-29","launch_site_code":"AFETR","launch_vehicle":null,"mission":null,"orbit_class":"UNKNOWN","rcs_meters":null,"size_class":null,"mass_kg":null,"dimensions":null,"purposes":["comms"],"wikipedia_slug":null,"has_3d_model":false,"image_url":null,"decayed_at":null,"tle_current":{"epoch":"2026-05-25T00:32:55.741632Z","epoch_age_seconds":69508,"freshness":"FRESH","line1":"1 58682U 23211R   26145.02286738 -.00005101  00000+0 -17619-3 0  9997","line2":"2 58682  43.0066  13.7646 0001712 249.3038 110.7630 15.27534302134140","mean_motion":15.27534302,"eccentricity":0.0001712,"inclination_deg":43.0066,"raan_deg":13.7646,"arg_perigee_deg":249.3038,"mean_anomaly_deg":110.763,"bstar":-0.00017619,"rev_number":13414,"period_min":94.269568815221,"perigee_km":482.01127721617,"apogee_km":484.36059418935,"semimajor_km":6861.3229357028,"source":"CELESTRAK","updated_at":"2026-05-25T13:38:18.713081Z"}}}